Wind_Speed
34 33 33 33 34 35 35 35 35 34 32 31 29 29 31 32 30 28 29 30 30 29 30 30 30 30 30 30 29 28 28 29 29 27 26 26 25 25 24 23 23 22 22 22 22 22 21 20 19 18 18 17 17 17 18 17 16 18 20 20 15 11 11 8 7 4 1 8 13 12 17 21 16 13 13 13 14 14 13 12 11 14 15 15 15
34 33 33 34 34 35 36 36 35 33 32 32 32 30 31 33 33 30 29 30 31 30 30 30 30 30 30 30 30 29 28 29 29 28 27 27 27 25 25 24 23 22 22 21 21 21 20 20 19 18 18 18 18 18 19 19 19 20 21 18 13 13 15 13 11 8 6 10 11 12 17 19 14 12 14 15 16 15 12 11 11 14 15 13 13
33 34 34 34 35 35 35 35 35 33 32 33 33 33 33 33 34 33 31 31 31 30 29 29 30 30 30 30 30 29 29 28 29 29 28 28 27 26 26 25 23 23 23 22 22 22 22 21 20 21 21 21 20 21 22 22 20 19 18 17 16 16 17 17 15 10 10 13 12 13 18 19 15 14 14 15 15 12 11 11 12 14 14 12 13
32 33 34 33 34 35 34 33 33 33 33 33 34 35 34 33 33 34 33 31 31 30 30 30 30 31 30 30 29 29 29 28 29 30 29 28 27 26 26 25 24 23 23 22 21 22 23 24 23 23 22 23 25 25 23 19 17 16 16 17 20 19 17 17 18 14 11 15 14 13 15 17 17 15 14 14 15 13 12 12 12 13 13 11 13
32 32 33 33 34 34 33 32 32 33 34 34 34 34 34 33 33 33 33 32 31 31 31 31 31 32 31 30 30 29 29 29 29 30 29 28 28 27 26 26 25 23 23 22 22 22 23 25 25 24 21 21 23 24 22 18 15 17 19 19 20 20 16 14 18 17 13 16 17 14 13 15 15 14 14 15 15 15 15 14 13 13 12 11 12
32 31 33 34 34 33 32 31 32 34 35 35 34 34 34 33 34 34 34 32 31 32 32 32 32 32 32 31 30 29 29 28 29 30 30 28 28 27 26 26 25 24 23 23 24 23 22 22 23 23 22 22 21 21 20 19 19 20 21 19 18 19 18 14 15 17 15 15 18 16 15 15 14 13 14 14 15 17 16 15 17 16 13 13 14
32 31 32 32 32 32 33 32 33 35 36 35 34 33 34 34 34 35 34 32 31 33 33 33 32 32 32 32 31 29 29 29 28 30 30 29 29 28 27 26 25 25 24 23 24 25 22 20 20 20 21 24 24 21 20 21 22 22 21 19 16 17 18 16 14 16 15 14 16 17 16 15 14 14 14 13 13 15 13 11 13 15 13 14 15
32 31 30 30 30 31 33 34 35 36 36 35 34 33 34 34 34 34 34 34 33 33 33 33 32 32 32 33 32 30 30 29 29 30 31 30 30 29 28 26 25 25 24 23 24 25 23 22 21 20 21 24 25 23 23 24 24 23 21 20 17 16 19 18 16 15 15 13 13 15 16 15 14 14 14 14 14 13 12 11 10 10 10 10 11
31 30 30 29 29 31 33 34 36 36 34 34 34 35 34 35 34 33 34 35 34 33 33 32 32 32 32 32 32 32 32 31 31 32 33 31 30 30 29 28 27 26 25 24 24 24 23 23 22 21 22 23 24 24 25 25 24 24 23 21 19 18 19 20 18 16 16 16 14 15 16 15 16 17 16 15 16 13 12 13 13 9 7 9 10
29 29 29 30 30 30 32 34 34 34 34 33 34 35 35 34 34 34 34 35 34 32 32 33 33 33 33 32 32 33 33 33 34 35 35 33 31 31 30 28 27 26 25 24 23 23 23 22 21 22 23 24 24 24 24 24 24 23 23 22 22 21 20 21 20 19 18 18 17 16 17 17 18 20 18 16 15 14 11 12 12 9 8 11 12
29 28 29 30 31 31 32 32 33 33 34 34 34 35 35 34 34 35 34 34 34 33 32 33 34 35 34 33 32 33 34 35 35 36 36 35 34 32 30 29 27 26 25 23 22 22 21 20 20 22 23 24 24 24 24 24 24 23 22 22 23 22 22 22 21 21 19 18 19 17 17 18 18 20 20 17 15 14 12 10 10 9 9 9 9
29 29 29 30 31 32 32 31 31 32 33 34 35 35 35 34 34 35 35 35 35 34 33 33 34 34 33 34 33 34 35 36 36 37 38 38 35 32 31 29 27 25 25 23 21 20 20 20 21 23 24 25 25 26 25 24 25 24 22 22 23 23 23 23 22 22 20 18 18 19 18 18 18 19 20 18 16 16 13 9 9 10 10 9 9
31 30 30 30 31 32 32 30 31 32 33 34 36 35 34 34 35 35 36 36 35 34 34 34 33 34 34 35 35 34 34 36 36 37 39 40 37 33 30 29 27 25 24 24 22 20 21 22 22 22 24 26 26 27 27 26 26 25 23 23 24 24 23 22 21 21 20 17 16 17 19 18 17 17 18 17 16 16 14 12 11 11 11 11 11
34 33 33 32 31 31 30 29 29 30 32 34 35 35 35 35 36 36 36 35 35 35 36 35 34 35 35 34 35 34 34 36 37 37 40 40 38 33 29 28 28 27 25 24 23 22 22 23 23 22 22 25 27 27 28 27 27 26 24 23 25 25 23 22 20 19 19 17 13 12 15 17 15 14 16 17 16 15 14 12 11 11 12 12 11
34 35 35 36 34 31 31 31 28 27 30 33 33 34 34 35 35 36 36 37 37 37 37 35 34 35 35 33 33 33 33 34 36 37 39 41 39 35 30 28 29 28 27 26 25 23 23 23 23 23 23 25 27 27 28 28 28 27 25 23 24 24 23 22 20 18 17 16 13 9 11 15 14 11 14 18 17 15 13 11 10 10 10 10 11
33 34 36 37 34 31 32 33 31 29 30 32 33 33 33 35 36 37 36 37 37 36 35 34 34 35 34 32 31 31 31 32 35 38 39 41 41 38 32 29 29 29 27 26 25 24 23 23 24 24 23 24 27 27 27 27 28 27 26 24 23 22 22 22 20 19 18 16 14 12 10 13 14 12 12 16 17 15 13 11 10 9 9 10 12
32 33 34 36 35 33 33 32 32 33 34 33 33 34 35 36 37 37 36 35 36 36 36 35 34 33 33 31 30 30 30 30 34 39 41 42 43 40 33 28 28 28 27 26 24 23 23 24 24 24 23 23 26 28 28 27 27 27 26 24 21 19 20 21 20 20 19 16 15 14 11 11 14 13 12 14 15 15 13 11 9 10 11 11 11
31 35 34 35 36 36 36 36 34 34 36 36 35 36 36 37 37 37 37 37 37 37 35 32 31 32 33 32 30 30 29 28 31 38 42 44 45 41 35 29 26 25 26 26 24 23 22 23 24 24 23 23 25 27 28 27 26 26 25 22 20 18 18 20 21 21 21 19 17 16 14 12 13 14 13 14 15 15 13 12 10 9 10 10 10
27 34 37 37 38 37 37 37 36 35 36 38 38 38 37 37 37 37 36 37 36 35 33 31 30 31 32 32 30 29 28 27 30 36 41 44 45 41 35 31 27 25 25 26 23 22 21 22 24 25 23 23 24 26 29 27 25 24 24 22 20 18 16 17 19 20 22 23 21 20 18 15 15 15 15 15 16 16 15 15 14 11 9 10 10
30 31 38 38 38 40 39 38 37 36 37 38 39 39 38 37 36 35 34 34 34 32 32 32 30 30 31 31 29 28 29 29 31 35 39 42 42 39 35 32 30 27 26 26 24 22 22 21 24 26 25 23 23 25 29 29 24 22 24 23 21 18 14 13 15 18 22 25 24 23 21 19 18 18 18 18 18 18 18 18 18 17 14 13 12
32 30 35 37 36 37 39 41 41 37 37 39 39 38 37 36 35 34 33 32 32 31 31 31 29 29 31 32 30 28 29 30 32 36 38 39 40 40 36 34 33 30 28 27 24 24 24 22 24 28 28 25 24 26 30 30 25 23 25 25 24 22 20 17 18 21 22 23 22 22 22 21 20 20 20 21 22 22 21 21 21 21 20 18 15
34 32 33 35 36 37 38 41 42 39 37 37 37 36 35 35 33 33 32 30 30 30 29 29 28 27 28 30 30 29 28 30 32 36 38 39 42 44 40 36 34 32 29 27 25 25 26 25 25 29 31 28 26 27 31 32 29 25 26 27 25 23 21 20 21 22 20 19 19 20 20 21 21 21 21 22 23 23 22 21 21 22 22 22 19
31 35 35 34 34 36 40 41 39 38 37 36 34 33 33 32 32 30 30 29 28 27 27 27 27 26 25 27 28 29 29 30 32 34 37 39 43 47 44 38 35 34 30 29 28 27 28 28 27 29 32 32 29 28 32 34 32 28 27 26 23 19 18 20 21 22 20 17 18 20 20 20 21 22 22 22 22 22 21 19 18 18 19 20 19
23 27 27 32 34 32 37 42 39 36 35 34 32 30 30 30 30 29 29 28 26 24 25 26 26 24 23 24 26 27 28 30 30 31 35 39 45 49 46 38 36 35 32 31 31 30 29 29 28 29 33 34 31 30 33 34 34 31 27 23 20 20 21 21 20 21 22 20 19 20 21 22 22 23 23 23 22 22 22 21 18 17 16 16 16
18 27 21 17 29 30 30 35 36 33 33 33 30 28 28 28 27 26 27 27 25 23 23 24 25 23 22 22 23 24 25 27 27 29 33 38 45 51 47 39 38 38 34 32 32 30 29 29 27 28 32 34 32 31 33 34 34 32 28 24 21 21 23 22 20 19 21 22 21 20 21 22 23 22 22 21 20 20 22 22 21 18 17 16 15
6 17 22 17 14 22 27 31 31 30 31 31 28 26 26 26 25 25 25 25 25 23 22 23 23 23 22 22 22 22 23 25 27 30 33 38 45 50 46 38 37 38 35 31 30 28 27 27 27 29 32 33 33 33 33 34 34 31 29 27 24 22 23 24 22 19 18 19 20 21 20 20 20 20 19 18 17 17 18 19 20 20 18 17 16
4 5 6 16 21 17 11 15 21 25 26 26 25 24 24 23 22 23 24 24 23 23 22 22 22 22 21 21 21 21 23 25 27 30 34 37 43 48 45 39 37 36 32 29 29 28 27 27 28 30 32 32 32 33 33 31 30 29 30 31 28 23 22 23 23 22 19 17 17 18 19 19 19 19 19 18 18 16 15 14 16 17 16 15 16
13 11 6 5 14 21 19 9 3 12 18 21 21 21 23 23 22 23 24 24 23 22 22 21 22 22 22 21 21 21 21 23 25 28 32 36 41 45 44 38 33 31 30 29 29 28 27 28 29 31 32 32 31 30 29 28 28 29 31 31 29 26 23 21 21 22 22 19 17 17 18 18 19 19 18 18 19 19 18 16 15 14 13 13 16
20 19 16 12 7 11 15 12 6 1 7 15 17 17 20 24 22 21 22 24 24 24 23 22 22 24 23 23 23 20 18 21 25 27 31 36 40 44 44 38 31 29 31 32 31 30 30 31 32 32 32 31 29 27 26 26 27 29 30 29 29 27 25 23 22 22 22 21 21 20 19 19 19 19 18 17 18 20 20 19 16 14 15 16 17
22 20 22 20 14 9 7 4 2 4 5 10 12 9 12 20 23 20 18 19 21 24 25 24 25 27 27 27 28 27 26 28 28 28 30 35 40 45 48 45 39 35 35 36 35 34 34 33 31 31 30 29 28 26 26 25 26 28 28 28 28 28 27 26 25 24 23 23 23 22 21 19 19 18 19 19 18 17 17 17 16 17 19 20 20
20 18 20 19 17 15 12 7 3 7 7 6 7 5 5 9 16 18 17 16 16 18 21 24 27 31 30 29 29 31 30 27 26 27 29 32 37 44 49 50 45 40 39 39 35 33 33 31 29 28 28 27 27 27 26 25 26 27 28 28 28 27 27 28 27 25 24 25 25 24 22 20 19 18 18 19 17 15 14 15 17 20 21 20 20
21 18 15 15 17 16 13 9 2 4 3 3 4 8 4 2 7 12 14 15 15 16 17 20 24 28 28 25 24 26 28 26 26 27 27 28 34 43 48 51 48 43 41 40 35 33 34 32 29 27 27 26 27 28 27 26 26 27 27 28 29 29 29 29 28 26 25 26 27 26 24 21 19 19 18 17 15 15 15 17 19 21 22 21 20
27 24 19 17 18 16 12 11 9 7 7 8 5 2 5 5 3 6 8 10 12 14 16 18 21 23 24 23 21 23 26 28 28 27 25 25 31 39 46 51 50 44 41 39 34 31 32 30 28 28 28 26 27 28 29 28 27 26 27 29 31 31 30 28 27 26 26 26 26 27 26 23 20 19 18 16 15 15 16 17 18 19 21 22 22
27 28 26 22 19 18 17 17 16 14 14 12 9 7 4 1 1 3 5 5 5 8 10 13 16 18 20 21 20 21 24 27 27 27 24 23 28 36 43 46 44 41 41 40 35 32 31 29 29 29 28 28 28 30 30 28 27 27 27 26 27 29 29 28 27 27 28 27 25 26 28 27 23 20 18 17 16 17 18 18 18 16 16 17 18
23 24 26 24 21 21 22 22 21 20 18 15 13 11 8 6 5 4 3 3 3 5 6 8 12 14 15 17 17 18 19 21 22 23 23 23 27 35 38 36 34 34 36 36 33 30 30 30 30 30 29 29 29 30 30 29 27 27 27 26 25 26 27 28 28 28 28 28 26 25 26 28 27 23 20 18 18 18 19 19 19 18 16 15 14
25 23 23 23 23 23 23 22 22 20 18 17 16 14 12 9 7 5 3 2 2 3 3 4 8 11 13 15 15 15 15 16 17 19 21 24 30 35 36 34 33 34 34 34 32 29 28 28 28 28 29 29 28 28 29 29 28 27 27 26 25 25 26 28 30 29 27 28 27 25 23 25 27 25 23 22 22 21 20 19 18 19 18 17 16
30 27 24 22 22 21 21 21 21 19 18 18 17 15 13 11 9 6 5 4 3 1 1 2 4 7 9 11 13 14 15 15 16 17 20 24 30 35 36 35 35 35 34 34 33 29 26 25 25 25 27 29 28 27 28 30 29 28 27 27 26 26 26 27 29 29 28 27 27 25 22 22 24 24 24 24 24 23 23 21 19 19 20 19 18
30 30 27 22 19 18 19 19 19 19 18 18 16 14 11 9 8 7 6 5 4 2 0 1 2 3 4 7 9 12 13 13 13 14 17 22 29 33 33 32 33 34 34 34 33 30 27 27 25 24 25 27 27 27 27 28 29 28 27 27 27 27 26 26 27 29 30 28 26 25 23 23 24 24 23 24 24 23 22 22 21 21 21 21 21
27 30 30 25 20 19 18 18 18 18 17 15 14 12 11 9 8 6 5 5 3 2 2 2 1 0 3 6 7 8 10 10 11 14 19 24 30 31 29 28 29 31 31 31 31 31 29 27 25 25 26 25 25 27 26 26 28 29 29 28 27 26 25 25 26 29 31 30 29 29 27 26 26 25 23 23 24 23 22 21 21 21 21 20 21
24 27 30 29 24 21 20 19 17 16 15 14 13 13 13 13 11 9 7 6 5 4 5 5 4 2 2 4 4 6 6 7 9 13 18 21 24 24 21 19 22 25 27 28 29 30 27 23 21 25 27 25 22 22 24 26 28 29 29 29 28 26 24 23 23 25 28 28 27 28 28 27 24 24 25 24 24 23 22 22 21 21 21 20 20
23 24 27 28 26 23 21 20 19 18 17 16 15 15 15 15 13 12 11 9 7 7 8 7 6 3 1 1 4 5 5 5 7 10 13 15 17 17 15 12 13 17 20 20 23 27 26 22 20 22 25 24 20 17 18 22 25 27 27 27 26 25 23 21 20 20 22 22 20 22 26 26 23 22 23 24 23 23 22 23 23 24 23 22 20
25 25 25 26 26 25 23 21 19 18 18 18 18 18 17 16 15 15 14 12 10 10 9 8 7 6 4 3 5 4 3 4 6 8 11 13 15 17 16 10 8 12 17 18 19 23 24 22 20 19 18 19 19 16 13 15 19 22 24 24 23 21 21 23 23 23 23 23 20 18 21 23 21 19 20 22 22 23 23 22 23 24 23 23 22
25 26 27 27 27 27 25 24 22 20 19 19 19 19 19 18 17 16 16 15 13 11 9 8 8 8 8 7 5 4 4 4 5 6 10 13 14 16 17 10 2 6 15 17 18 21 24 24 23 19 15 14 15 16 13 13 15 17 20 22 23 22 21 22 24 25 26 26 23 19 19 20 20 19 19 20 20 21 22 22 22 22 22 22 22
24 24 26 28 30 29 28 27 26 24 21 20 21 20 19 18 18 17 16 15 14 12 9 8 8 11 11 11 8 7 7 6 5 4 6 9 10 14 17 12 2 3 10 13 12 15 20 22 23 22 18 13 12 13 14 15 16 16 18 21 22 23 23 23 24 24 25 26 24 21 20 20 19 19 19 20 20 19 20 20 20 20 20 20 21
25 24 24 25 28 30 30 29 29 28 25 23 22 22 21 19 18 17 16 15 14 13 10 8 9 10 11 14 14 12 11 9 7 6 5 5 5 8 14 13 4 5 7 9 9 9 11 14 18 21 21 18 15 14 14 16 16 16 17 18 18 18 20 22 22 21 21 21 22 22 21 20 20 21 21 21 20 19 19 20 20 19 18 19 19
26 26 25 24 25 28 29 28 28 29 29 28 26 25 24 23 23 21 18 16 15 13 11 10 9 8 8 10 13 13 14 13 11 10 8 5 3 2 8 12 8 4 5 7 8 7 8 10 13 16 18 18 16 14 13 14 15 15 15 15 14 14 16 17 18 18 18 19 20 22 22 21 21 23 25 24 23 20 19 20 20 19 19 20 20
32 28 26 25 26 27 28 29 28 28 29 29 28 26 26 26 27 28 26 23 20 17 13 12 11 10 9 10 10 10 11 12 12 11 10 8 6 5 3 4 4 5 6 8 9 9 8 8 9 10 11 12 12 10 9 10 13 14 15 14 14 15 16 16 16 17 18 19 20 21 22 21 22 23 24 25 24 21 18 18 19 20 20 21 21
34 31 27 25 25 25 27 28 29 28 27 27 28 27 26 26 27 28 28 28 27 25 23 20 18 16 16 15 13 12 11 11 11 11 10 8 7 6 6 5 5 3 1 2 3 4 6 6 8 9 9 9 9 8 8 8 9 11 13 14 14 14 16 17 18 18 19 20 20 19 19 21 23 23 22 23 23 21 18 18 19 20 22 22 22
28 27 25 24 24 23 23 24 25 25 25 25 26 28 27 26 26 26 27 27 28 28 29 28 26 24 24 24 22 20 17 14 13 13 12 11 10 8 6 5 4 2 2 2 3 3 3 2 4 7 9 10 9 9 9 10 10 9 9 11 13 13 15 18 19 18 19 20 21 19 18 20 22 21 19 20 21 20 19 19 19 20 21 23 23
24 24 23 23 22 22 21 21 21 23 24 23 24 26 27 26 25 25 25 26 26 27 28 28 27 27 28 28 28 28 27 24 20 19 18 16 14 12 11 9 8 7 7 7 7 7 7 6 4 2 4 7 9 9 10 11 12 10 8 8 9 10 12 16 18 18 19 20 20 19 18 20 21 19 18 19 20 21 21 21 21 20 20 21 22
23 23 23 23 22 21 22 21 21 21 23 22 22 23 24 25 24 24 24 24 24 24 24 25 25 26 26 26 26 27 29 29 27 25 25 24 21 19 18 16 14 13 12 12 13 13 12 10 9 7 4 1 3 6 9 11 12 13 13 12 10 9 11 14 16 16 16 17 18 18 18 19 20 20 20 20 21 21 22 22 21 21 20 19 18
Wind_Direction
203 203 197 194 195 197 196 193 190 190 190 192 195 196 195 196 199 202 201 201 201 200 198 197 199 199 200 202 202 202 204 205 204 202 200 199 202 203 202 205 207 208 211 214 215 216 217 219 222 222 223 223 219 217 218 220 224 227 230 240 249 238 236 244 223 219 103 159 170 170 175 174 172 184 199 212 218 225 236 244 256 256 253 263 271
201 201 196 194 195 196 196 194 191 189 189 193 199 199 197 197 199 202 204 203 202 201 198 198 199 200 201 202 202 202 204 205 203 200 198 199 201 203 202 203 204 206 209 211 211 212 214 218 222 222 220 219 218 218 218 219 221 226 231 235 237 232 231 229 223 213 161 156 166 166 170 172 175 193 204 214 221 224 233 245 250 246 250 261 261
200 199 197 195 194 196 198 196 192 189 190 195 201 202 200 198 197 199 202 203 201 201 199 199 200 201 201 202 203 203 203 201 200 198 197 198 198 200 201 201 204 206 208 208 210 212 212 216 221 223 221 220 218 219 221 220 217 219 226 229 227 231 230 220 217 211 175 169 174 168 174 181 188 199 211 219 217 211 218 240 247 242 247 253 249
199 198 198 197 196 196 199 199 193 190 192 197 201 203 202 200 199 199 200 200 200 201 202 202 201 201 201 202 203 203 201 199 198 197 198 198 197 196 199 201 205 209 209 209 213 215 212 213 219 221 220 217 216 220 225 223 217 218 224 226 224 227 228 215 212 214 186 175 182 183 187 198 208 215 221 216 206 206 220 238 245 241 244 253 256
199 198 197 197 197 197 198 198 195 193 195 199 202 203 202 202 202 201 200 200 200 201 204 204 202 201 202 203 203 204 202 199 198 197 197 198 196 196 198 201 205 209 211 212 217 221 218 214 215 216 219 222 217 217 221 220 219 223 223 224 221 221 225 215 207 214 204 178 181 193 200 205 212 217 217 209 204 215 231 237 233 235 242 246 249
198 197 196 196 196 197 197 196 196 195 196 200 203 202 203 204 203 203 202 202 202 204 206 206 202 201 202 204 205 205 203 201 200 197 197 197 196 197 200 202 205 209 211 213 217 226 228 219 214 216 222 231 228 218 214 214 216 219 220 222 220 213 215 211 200 209 213 187 180 195 204 195 192 203 213 214 209 211 224 231 226 229 243 243 240
197 196 194 195 195 195 197 197 197 197 198 200 202 202 203 204 204 203 203 204 206 207 207 206 204 202 203 204 206 205 203 202 200 196 195 196 196 198 201 204 206 206 209 212 216 225 232 227 223 221 219 227 229 220 211 212 215 217 215 218 218 207 206 204 196 203 210 191 182 194 197 187 187 202 213 222 221 215 223 237 229 228 239 241 239
195 195 194 196 196 195 197 199 199 200 200 200 201 202 203 204 204 202 200 203 209 209 207 207 205 205 206 207 206 205 204 202 200 196 194 195 198 200 202 206 206 204 208 213 217 224 231 232 230 224 220 224 225 218 211 211 214 213 211 213 215 207 200 195 194 200 201 196 198 195 186 184 197 208 215 222 222 216 220 236 241 238 240 241 244
195 193 194 196 198 197 198 200 200 200 199 198 199 201 202 203 203 201 200 203 209 211 209 207 206 206 209 209 205 204 204 202 200 199 196 195 198 200 201 204 203 203 208 213 218 223 228 231 231 226 223 225 221 214 213 213 213 211 208 210 211 206 196 189 191 197 195 200 210 195 181 190 203 206 215 220 212 209 220 226 231 244 254 259 263
195 192 192 194 196 197 199 201 201 199 197 196 198 200 202 203 201 201 201 203 207 211 210 207 206 207 209 210 207 203 203 204 204 202 199 196 197 198 199 200 200 201 204 209 214 220 224 227 228 224 223 222 217 212 213 214 213 210 207 208 209 203 192 185 191 198 196 200 207 194 184 196 202 202 211 215 208 214 226 213 210 232 252 255 262
196 194 193 193 194 198 201 202 201 199 197 197 198 199 200 201 200 200 202 204 206 210 211 208 208 208 208 209 208 204 204 207 207 204 200 198 196 197 197 196 198 200 201 206 212 214 218 223 223 221 220 218 213 210 211 211 209 206 206 208 209 203 194 188 193 200 202 202 204 199 195 201 203 201 206 209 204 210 216 205 207 233 246 249 265
196 195 195 194 194 197 201 201 200 199 198 198 199 200 199 198 199 200 202 204 206 209 210 211 210 210 208 208 208 207 206 208 208 204 201 200 197 195 194 194 196 198 200 205 211 213 216 219 220 219 218 216 211 207 207 208 205 203 205 207 207 203 198 196 198 203 206 205 203 205 205 205 203 201 202 203 202 206 210 210 216 231 242 251 262
194 193 195 197 197 198 197 197 200 200 199 199 199 198 198 197 198 201 203 205 205 206 209 212 212 209 209 208 208 209 208 208 208 204 200 199 197 194 194 195 196 197 199 203 209 213 214 214 215 216 215 213 210 207 206 205 202 203 205 205 203 201 199 202 205 206 207 207 206 210 212 208 204 203 203 200 199 200 202 211 223 230 238 246 252
194 193 197 200 201 199 193 192 198 200 201 201 200 198 196 197 198 200 201 203 203 204 207 211 212 210 208 208 208 209 210 209 208 204 200 199 197 195 195 195 196 197 198 202 206 209 210 210 211 211 209 209 208 206 206 205 202 203 203 201 200 200 201 205 207 206 205 207 211 217 216 209 205 209 208 201 198 195 194 206 222 229 233 237 245
195 194 197 202 204 200 193 191 196 204 207 204 201 199 197 196 197 198 200 202 202 204 206 208 210 210 209 209 208 208 212 212 208 204 202 200 198 196 195 194 196 197 198 201 205 207 208 209 210 209 208 208 207 206 205 205 203 203 203 201 200 202 205 208 209 208 205 207 212 217 210 201 201 206 204 198 196 193 194 206 218 225 237 247 256
197 196 196 201 204 201 195 192 192 202 212 210 204 200 197 196 197 198 199 202 202 203 205 207 209 210 210 211 210 209 212 214 209 204 202 200 198 195 193 194 194 194 195 200 203 205 206 207 209 211 209 208 207 206 207 207 204 202 202 202 203 206 210 211 212 211 209 209 210 212 206 197 198 201 196 192 193 193 200 215 226 236 252 260 266
196 198 197 197 198 197 197 198 194 197 207 211 206 201 198 197 198 198 198 200 201 202 204 207 208 208 209 211 211 210 213 215 210 205 203 201 197 194 193 193 192 192 194 197 200 203 205 206 209 211 210 209 208 207 208 208 204 202 202 203 205 210 213 216 216 214 214 215 213 212 209 199 199 204 203 199 201 204 206 215 229 240 242 243 257
202 198 198 196 194 193 196 200 200 199 202 205 205 203 200 198 198 198 198 199 201 202 202 204 206 206 208 211 211 210 212 212 207 204 202 199 196 195 194 193 192 192 192 194 198 204 205 206 210 211 211 211 208 207 209 207 202 202 201 199 202 205 210 216 218 217 219 220 219 217 214 207 203 206 209 208 209 211 208 205 213 232 241 247 266
219 201 198 197 193 193 195 198 201 203 201 201 203 202 199 199 198 199 200 200 201 201 200 202 205 206 207 210 210 209 211 208 203 201 200 197 196 195 194 195 196 193 190 190 196 203 205 207 211 211 211 212 208 205 207 203 198 198 197 195 198 200 204 211 215 220 224 224 223 222 219 216 214 212 214 215 216 217 218 218 221 233 248 261 273
238 210 197 195 192 192 195 197 201 204 201 199 201 201 198 198 198 197 199 201 199 197 199 202 205 205 206 208 207 206 209 206 200 199 199 197 197 196 194 196 199 195 190 189 192 198 202 207 211 209 209 212 209 204 203 200 195 194 195 194 194 191 192 205 219 230 233 229 226 226 225 225 224 223 223 224 224 227 231 234 235 237 239 247 255
245 221 200 197 194 190 193 196 199 204 204 200 201 201 198 197 197 195 196 197 194 194 197 200 202 204 206 208 207 207 209 206 201 201 202 202 204 203 199 198 199 195 191 190 191 194 197 204 211 207 206 211 209 202 200 198 194 194 195 195 194 191 194 210 223 229 232 230 227 226 226 227 229 230 231 232 234 237 238 239 240 239 237 238 241
247 233 210 201 199 194 192 196 200 204 205 202 200 199 197 195 195 194 193 192 191 192 194 196 199 201 205 207 207 207 210 210 206 204 205 208 210 207 202 199 198 194 191 190 192 195 196 202 208 205 204 209 207 200 199 197 195 196 196 195 195 194 199 212 215 212 215 222 222 219 220 223 225 229 234 238 241 244 243 242 242 242 242 240 239
260 247 224 205 201 199 194 194 199 202 201 199 196 195 194 193 190 189 189 189 188 189 192 194 196 198 200 204 205 206 208 211 209 207 207 210 211 206 201 199 197 195 192 191 195 198 199 202 206 203 203 207 204 199 198 197 197 198 196 193 193 193 199 210 209 201 202 209 212 212 215 219 221 224 229 233 238 241 242 242 241 241 244 245 244
306 288 248 208 199 203 197 192 195 198 196 195 192 190 188 187 185 186 188 189 188 188 190 191 193 195 195 197 199 201 205 207 208 209 210 212 210 206 202 200 198 196 195 195 197 199 199 201 203 201 202 205 203 199 198 198 199 199 195 190 191 193 198 204 201 196 198 203 208 210 212 216 219 221 225 228 230 233 237 237 235 235 237 240 243
342 338 316 233 206 207 199 188 188 192 190 188 187 186 184 183 183 186 188 189 190 190 189 188 188 189 189 189 189 193 199 203 206 209 212 214 211 206 202 202 202 199 197 197 198 197 197 200 202 200 200 202 199 196 196 198 201 202 200 195 193 195 199 200 196 195 199 203 209 214 216 218 220 222 226 228 226 227 230 230 228 228 229 232 239
8 4 349 326 268 231 206 185 178 179 180 181 183 184 184 183 185 188 188 189 191 191 188 185 184 185 187 187 184 183 189 198 205 207 210 213 212 206 201 203 204 202 199 197 196 195 197 200 200 197 196 197 195 193 195 198 202 205 207 204 201 199 200 202 202 203 205 206 211 218 222 224 225 226 229 228 224 223 223 220 218 219 220 224 231
84 70 2 346 338 313 252 186 170 169 172 176 180 183 186 187 188 189 190 190 190 190 187 183 182 184 185 184 178 174 181 193 201 204 205 209 209 204 201 202 202 200 197 192 191 193 195 196 195 193 192 194 194 195 197 198 200 203 206 207 208 204 202 204 207 211 216 218 219 222 225 227 227 228 228 226 224 224 225 222 218 213 213 223 233
71 80 94 32 355 346 348 1 144 170 172 173 176 180 187 190 190 192 194 193 189 188 188 188 185 183 181 177 170 167 174 186 196 201 205 208 208 204 202 202 199 194 190 186 185 187 187 185 183 184 185 186 188 191 196 198 201 203 204 207 209 207 203 204 208 213 220 224 227 230 230 227 226 226 225 222 223 226 230 230 225 216 216 230 240
62 60 59 60 35 351 350 357 357 291 194 191 188 187 190 192 191 191 192 194 195 193 190 188 185 181 177 174 170 166 172 189 202 210 214 213 210 206 203 200 196 192 191 186 180 176 175 174 174 176 179 180 183 189 194 197 200 202 203 205 207 206 205 206 208 213 219 221 226 231 232 228 225 225 224 224 225 226 224 222 223 224 229 238 246
63 58 53 53 54 39 17 356 308 305 263 218 200 183 175 179 183 185 185 188 195 198 195 192 189 185 182 182 184 188 194 202 210 218 220 216 213 210 206 201 196 195 194 189 181 174 172 171 172 175 178 180 184 190 193 193 196 199 201 202 204 205 207 209 211 214 217 219 222 228 230 228 224 221 222 225 225 218 210 212 222 229 230 234 241
64 59 55 58 65 63 49 29 293 266 269 238 193 164 111 131 154 167 176 181 186 194 200 200 197 193 189 189 195 201 205 209 215 221 222 218 214 212 207 201 197 195 193 187 179 173 172 173 174 177 181 184 188 191 192 193 194 195 197 200 202 203 207 210 212 214 216 218 222 224 226 228 226 222 223 223 217 208 206 215 225 227 227 230 235
56 54 55 64 72 71 61 49 50 218 265 307 212 198 207 103 115 135 155 169 174 182 192 197 197 196 194 193 198 205 210 216 222 225 226 222 216 212 208 202 197 195 192 187 179 177 178 178 176 178 183 188 191 192 193 193 194 193 195 199 202 204 206 209 211 213 215 218 220 220 222 225 226 227 228 221 209 207 215 224 226 225 226 230 235
46 42 42 54 60 59 58 57 63 82 70 38 28 151 188 207 182 132 133 150 166 178 186 191 195 198 200 203 210 216 216 217 220 223 224 220 214 212 209 203 198 193 189 185 182 183 184 180 177 180 186 192 195 195 194 194 194 194 196 199 202 205 208 209 210 213 215 218 219 219 220 223 224 225 224 219 213 215 221 227 231 227 222 222 229
42 37 36 42 45 40 41 42 40 44 55 53 40 35 46 92 149 128 127 139 171 192 199 204 207 208 211 216 224 230 225 220 220 221 219 215 212 210 206 201 196 193 191 189 189 188 186 183 182 186 190 195 197 196 196 196 196 196 199 202 203 204 206 208 210 213 215 216 218 218 219 220 223 223 219 216 219 224 226 229 236 237 229 225 227
41 38 35 36 38 38 37 37 34 32 35 38 37 35 39 47 56 82 126 154 187 206 219 228 227 227 228 226 227 233 233 227 223 220 217 213 209 204 196 190 189 192 195 195 195 192 188 186 187 188 190 194 196 196 196 198 200 200 201 202 200 200 202 205 209 212 213 214 216 218 216 214 216 219 219 219 221 223 225 227 230 235 240 243 243
37 35 31 31 37 41 41 38 38 36 32 29 31 39 45 46 46 57 80 103 163 185 196 227 237 239 240 237 234 236 239 238 232 224 218 214 206 196 186 183 188 193 196 199 201 199 195 193 191 188 189 193 193 193 197 201 204 204 202 199 197 199 202 205 207 209 210 211 214 216 213 208 210 214 219 223 225 225 226 228 228 229 234 240 244
39 34 30 29 33 38 39 38 37 37 35 33 35 40 38 31 29 39 49 43 25 33 132 232 251 251 245 240 237 233 234 237 235 226 219 213 204 195 190 189 191 193 197 201 201 199 197 195 192 189 191 194 194 195 199 203 204 204 202 200 200 202 205 205 205 207 207 208 210 210 208 205 207 211 216 219 222 224 226 227 229 230 233 237 238
42 37 33 35 38 40 40 40 38 37 37 37 37 38 34 26 25 30 31 19 1 357 344 250 272 267 245 240 238 231 227 226 220 209 204 201 197 194 195 196 195 197 200 202 200 198 196 194 192 190 189 191 197 203 204 202 200 200 200 200 201 203 205 205 203 203 204 205 204 205 208 209 211 214 217 217 218 221 223 224 226 229 232 234 233
39 37 36 39 43 45 46 48 46 44 43 41 40 38 32 27 30 36 38 31 17 15 39 46 41 216 238 248 241 225 215 205 193 188 189 193 194 196 200 203 202 201 202 201 200 199 195 193 195 194 187 189 203 212 209 201 198 199 199 199 199 201 205 206 202 199 200 202 204 206 209 213 215 217 220 221 220 221 221 222 225 229 231 232 231
32 34 35 36 39 42 45 48 50 50 48 45 44 43 39 37 40 46 50 51 49 51 56 61 77 115 243 262 238 204 189 184 186 189 189 192 197 201 208 214 213 208 204 201 199 198 195 192 192 191 192 201 217 222 213 205 200 195 194 195 199 202 206 207 202 197 195 200 206 209 209 209 211 214 219 223 223 222 223 224 228 232 234 234 234
30 30 29 31 35 38 40 41 43 47 50 48 46 44 42 42 43 44 43 42 45 51 57 62 67 63 4 222 174 165 162 170 188 197 196 196 201 206 214 231 237 224 213 204 198 196 194 191 187 189 199 215 230 229 214 203 196 189 188 194 201 208 210 208 207 206 202 201 209 214 210 205 205 209 215 220 222 223 225 228 231 234 236 235 235
33 31 29 29 31 33 36 38 39 41 44 45 44 43 42 41 41 42 41 40 41 46 48 47 49 53 66 108 134 139 143 162 188 202 202 202 207 208 206 213 241 235 223 216 207 201 196 191 190 192 198 209 220 222 208 190 183 184 190 196 204 214 217 216 220 225 219 210 211 216 210 203 203 207 213 219 222 222 224 227 229 231 233 233 234
34 34 34 34 33 33 34 36 39 41 43 44 44 44 44 44 43 44 44 42 41 42 40 41 58 81 88 92 108 115 105 125 167 193 198 202 208 207 199 191 191 223 216 215 214 210 203 198 197 195 186 185 201 214 213 201 196 199 205 210 215 222 228 230 229 228 220 211 210 215 213 204 201 206 214 222 224 222 221 224 227 228 229 229 231
32 33 34 35 35 35 33 34 37 39 43 47 49 49 49 47 44 43 44 42 40 41 42 53 85 100 87 75 88 105 98 102 124 145 175 196 206 204 200 198 164 146 189 200 206 204 201 199 199 201 199 197 200 205 206 207 210 212 217 222 225 229 234 236 231 222 214 208 208 214 216 209 204 208 216 223 225 222 221 224 226 227 228 227 227
29 30 32 32 33 34 33 33 35 37 39 42 46 47 48 48 45 45 45 45 46 49 52 67 103 113 88 71 80 93 92 93 102 105 119 160 187 196 200 203 186 118 157 188 200 196 195 196 198 203 211 216 213 204 200 203 207 210 217 226 232 232 230 227 221 214 207 204 206 211 212 210 211 215 220 223 226 227 228 228 228 228 228 226 223
30 30 32 31 31 33 33 33 35 36 37 37 38 38 38 39 40 42 43 45 51 57 60 69 91 109 97 78 78 81 79 78 78 75 74 78 85 164 192 201 207 200 188 196 197 190 187 189 192 198 208 215 215 211 208 210 213 217 221 227 233 233 228 224 221 216 210 206 207 207 207 209 216 222 224 225 228 231 232 231 229 230 230 227 225
37 34 34 32 32 33 33 33 33 34 35 35 35 34 34 36 38 39 39 41 44 48 53 61 69 78 81 77 72 70 70 70 70 70 69 66 60 63 102 159 201 233 238 230 224 221 219 215 209 206 209 211 212 213 212 213 221 231 238 241 244 244 241 239 234 226 219 216 213 210 209 214 222 226 227 228 228 230 233 232 229 228 230 230 230
41 38 37 36 33 32 31 31 31 30 30 30 31 31 31 33 36 36 36 38 39 40 41 43 47 51 55 56 55 58 63 65 67 69 70 69 72 76 81 88 95 106 144 186 216 233 241 239 233 228 223 220 218 218 213 210 220 236 245 247 247 245 242 239 235 229 225 223 219 215 216 221 224 226 228 226 224 225 229 231 230 230 232 235 236
40 40 38 36 35 34 32 30 29 28 27 27 29 29 28 29 31 32 32 33 35 37 39 39 39 40 42 42 41 43 46 50 57 61 60 60 65 73 82 91 92 77 43 32 24 5 342 303 250 233 230 232 233 229 222 218 221 232 240 239 236 236 235 233 229 224 221 220 218 219 223 224 223 225 226 224 223 227 230 230 230 232 234 236 236
37 39 36 34 35 36 34 33 32 30 28 27 27 27 27 27 27 26 26 27 29 31 33 34 35 37 38 39 38 38 39 42 45 46 44 43 45 50 53 54 49 40 32 24 18 16 16 11 0 299 242 238 238 235 228 223 225 234 243 243 238 232 226 221 216 211 209 212 217 222 225 225 224 226 227 226 229 234 233 230 230 233 234 233 234
34 35 33 33 34 34 34 35 34 31 29 28 27 26 26 25 23 22 21 22 24 25 25 27 30 32 33 34 35 36 38 40 41 39 35 34 34 34 34 33 30 31 38 41 40 38 37 35 35 39 35 335 257 248 244 241 242 247 251 252 249 235 215 207 205 204 206 213 221 227 230 231 231 232 232 231 232 235 235 234 235 235 233 232 233
Height
719 722 722 722 724 726 728 729 730 732 736 740 743 745 747 750 754 758 760 761 763 764 765 767 769 771 773 775 777 779 780 782 784 786 788 790 792 795 797 799 801 803 804 806 807 808 809 810 811 812 813 813 814 815 815 816 816 817 818 818 818 818 819 820 821 822 823 823 824 825 826 827 829 831 833 833 834 835 835 836 836 836 836 836 835
715 718 718 718 720 722 724 725 727 728 731 735 739 742 745 746 750 754 757 759 760 762 763 765 767 769 771 773 775 776 777 779 781 783 785 787 789 791 794 797 799 800 802 803 804 805 806 808 809 810 811 811 812 813 813 813 814 815 816 816 816 817 818 819 820 821 822 823 824 824 825 827 828 830 831 831 832 833 834 834 834 834 834 834 833
711 713 714 714 715 718 721 722 723 724 727 731 735 739 741 743 746 749 753 755 757 759 761 763 765 766 768 770 772 773 775 776 778 780 782 784 785 788 790 793 795 797 798 800 801 803 804 805 806 807 808 809 809 810 811 811 811 812 813 814 815 816 817 818 819 820 821 822 823 823 824 826 827 829 830 830 830 831 832 832 832 832 832 832 832
707 709 710 711 712 714 717 719 719 720 723 728 731 734 738 740 743 746 749 752 754 756 758 760 762 764 765 767 769 771 772 773 775 777 779 780 782 784 787 789 792 793 795 797 798 800 801 802 803 804 805 806 806 807 808 808 808 810 811 813 814 815 816 816 817 819 819 820 822 822 823 825 826 827 828 828 828 829 830 831 831 831 831 831 831
704 705 706 708 709 710 713 715 716 717 720 724 727 731 735 737 740 742 745 748 750 752 755 757 758 760 762 764 766 768 769 770 772 773 775 778 780 782 784 786 788 790 792 794 796 797 798 798 800 801 802 803 804 804 805 805 806 808 810 811 812 813 814 815 815 817 818 819 820 822 822 823 824 825 826 826 826 827 828 829 829 830 830 830 830
700 701 702 703 705 707 709 711 713 715 717 720 724 728 731 734 736 739 741 744 747 749 751 753 754 756 758 761 763 764 766 768 769 770 772 775 777 779 781 782 784 787 789 791 793 794 795 796 796 797 798 799 800 801 801 803 805 807 808 809 810 811 812 813 814 816 817 818 819 820 821 821 822 823 824 824 824 825 826 826 827 827 828 828 828
696 697 698 699 700 702 705 707 709 711 713 717 721 724 728 730 732 735 738 741 744 745 747 749 750 752 755 757 759 761 763 765 766 767 769 771 773 775 777 779 781 783 786 787 789 791 791 793 793 794 795 796 797 797 798 801 803 805 806 808 809 809 810 812 813 814 815 816 817 818 819 819 820 821 822 823 823 823 824 824 825 825 825 825 825
691 691 693 695 696 698 700 703 705 708 710 713 717 721 724 727 729 731 735 737 740 741 743 745 747 749 751 753 755 758 760 761 763 764 766 768 770 772 774 776 778 780 782 784 786 787 789 790 791 791 792 794 795 795 797 799 801 802 804 806 807 807 808 809 811 812 813 814 815 815 816 817 818 819 820 821 821 821 822 823 824 824 824 824 824
686 686 688 690 692 695 698 700 702 704 707 710 714 717 720 723 726 728 731 733 736 738 740 742 744 746 748 749 751 753 755 757 758 760 762 763 766 768 770 772 774 776 779 781 783 785 786 788 788 789 791 792 793 794 796 798 799 800 802 803 804 805 806 807 808 810 810 811 812 813 813 814 816 817 818 818 819 820 821 821 822 822 823 823 823
681 681 683 685 689 692 695 697 699 701 704 706 709 713 716 719 722 725 727 730 732 735 737 739 740 742 743 745 747 748 750 752 754 755 757 759 762 764 766 769 771 773 776 778 780 782 784 785 786 787 789 791 791 793 795 796 797 799 800 802 803 803 803 804 806 807 808 809 810 810 811 812 813 814 816 816 817 819 820 820 821 821 822 822 822
676 677 678 681 684 688 691 694 697 699 700 703 706 708 712 715 717 720 724 726 729 731 733 735 736 737 739 741 742 743 745 747 749 751 753 756 758 761 763 765 767 770 772 775 777 779 781 782 784 786 788 788 789 791 793 794 796 797 799 800 801 801 801 802 804 805 806 806 807 808 808 810 811 812 814 815 816 818 819 819 820 821 821 821 820
671 673 675 677 680 683 686 690 694 696 698 699 702 705 708 710 713 717 719 721 724 726 728 730 731 733 735 736 737 738 740 742 744 746 749 752 755 758 760 762 764 767 769 772 774 776 778 781 782 784 785 786 787 789 790 792 793 795 797 798 799 800 800 801 802 803 804 804 805 806 807 808 809 810 811 813 814 816 817 818 819 820 820 820 819
667 669 672 675 676 678 682 686 690 693 695 697 699 701 703 706 708 711 714 717 720 722 724 726 727 729 730 731 732 734 736 737 739 742 746 749 753 755 758 760 761 764 766 769 772 774 776 779 781 782 783 784 785 786 788 789 791 792 794 795 796 798 799 800 801 802 802 803 804 805 805 806 807 808 810 811 813 814 815 817 818 818 819 819 818
662 665 668 671 673 675 677 681 686 691 694 696 696 697 699 701 704 706 710 713 715 717 718 720 722 724 725 726 728 730 732 734 736 739 743 747 750 753 756 757 759 761 763 766 769 771 773 776 778 779 780 781 783 784 786 787 789 790 792 793 794 795 797 799 800 800 801 802 803 804 804 805 806 807 808 809 811 812 814 815 816 817 817 817 816
657 660 663 666 669 671 672 675 681 688 693 695 695 695 695 697 700 702 705 707 709 711 713 715 717 719 721 723 725 727 729 731 733 737 740 744 748 751 753 755 756 758 760 763 766 768 770 773 776 777 778 779 781 782 783 785 787 789 790 792 793 794 795 797 798 799 800 801 802 802 803 804 805 806 807 808 809 811 813 814 815 815 815 815 815
652 655 657 660 664 668 669 671 674 682 691 694 693 692 692 693 695 697 700 702 705 707 709 711 712 715 718 720 722 724 726 728 730 733 737 741 744 748 751 752 754 756 758 760 763 765 767 770 773 774 775 777 779 781 782 784 785 787 789 790 792 793 794 796 797 798 799 800 801 801 802 803 804 805 806 807 808 810 811 812 813 814 815 815 814
648 650 652 655 659 663 667 668 669 675 684 690 691 689 688 689 691 693 695 698 700 701 703 706 708 711 715 717 719 721 722 724 726 729 733 737 741 745 748 750 752 754 756 758 761 763 765 767 770 772 774 775 777 779 780 782 784 785 787 789 791 792 794 795 796 797 798 799 800 801 802 803 804 805 806 807 808 809 810 811 812 813 814 813 812
644 645 647 650 654 657 662 665 667 670 676 682 686 686 685 685 686 688 690 692 694 696 699 702 705 708 711 713 715 717 718 720 724 727 729 733 737 741 745 748 750 752 753 756 759 760 763 765 767 770 771 772 774 777 779 780 782 784 786 788 790 791 792 793 795 796 797 798 799 800 801 802 803 804 805 806 807 808 809 810 811 811 812 811 811
639 641 642 645 649 653 657 661 665 667 670 674 679 681 680 681 682 683 686 687 689 692 695 699 702 704 707 709 712 714 715 717 721 725 728 731 734 738 741 744 747 749 750 753 756 758 760 762 764 767 769 770 772 775 777 779 781 783 784 786 788 789 791 792 794 795 796 796 797 798 799 801 802 803 804 805 806 806 807 808 809 809 810 810 809
636 637 638 640 643 646 651 655 660 663 665 668 673 675 675 676 678 680 682 684 686 689 692 695 698 701 704 706 709 711 712 715 719 722 726 729 732 735 738 740 743 746 747 749 752 754 757 759 761 764 766 768 769 772 774 776 779 780 782 783 784 786 789 792 793 795 796 795 795 796 797 799 800 801 802 803 804 805 805 806 807 807 808 808 808
634 634 634 635 638 640 644 648 652 656 659 663 667 670 671 672 674 675 677 680 682 684 688 691 694 698 701 703 706 708 709 712 716 720 723 727 729 732 734 736 739 742 743 745 748 750 753 755 758 760 763 765 767 768 771 773 775 777 778 778 779 780 784 788 790 792 794 794 794 795 795 797 798 799 800 801 801 802 803 803 804 805 805 806 806
631 630 630 631 633 635 638 642 646 650 654 658 662 665 666 668 670 671 674 676 678 681 684 688 692 695 698 700 702 705 707 709 712 716 720 723 726 728 730 733 736 738 740 741 743 745 748 751 753 756 759 762 763 765 767 769 772 773 774 775 775 777 781 784 787 789 790 791 792 793 793 794 795 796 797 798 798 799 800 801 801 802 802 803 804
629 627 625 625 628 630 632 635 640 644 648 652 657 660 663 664 666 668 671 673 675 678 681 685 689 692 695 697 699 701 703 705 709 713 716 720 723 725 727 730 732 734 735 737 738 741 743 745 748 752 756 758 760 762 764 766 768 770 771 772 774 776 780 783 784 786 787 789 789 790 790 791 792 793 794 795 795 796 797 797 798 799 800 800 801
629 627 624 621 622 625 628 630 635 639 643 647 653 657 659 661 663 665 668 670 672 675 679 682 686 689 692 694 696 699 700 702 706 710 713 716 719 722 724 727 729 730 731 733 734 736 738 741 744 748 751 754 756 758 761 763 765 767 769 771 774 775 778 780 781 783 785 786 786 787 787 788 789 790 791 792 793 793 793 794 795 796 797 798 798
627 629 629 625 621 623 626 626 629 635 639 644 649 654 657 659 660 662 665 667 669 672 676 679 682 685 688 691 693 696 698 700 704 708 711 714 716 719 722 725 726 727 728 729 731 734 736 739 743 746 749 751 754 757 759 762 764 765 767 770 772 774 775 777 779 780 782 783 783 784 785 785 786 788 789 790 790 791 791 791 792 793 794 795 796
623 627 633 633 631 630 628 625 625 630 636 641 647 652 655 656 658 660 662 665 667 670 673 676 679 682 685 688 691 693 695 699 702 705 709 711 714 717 720 723 724 725 725 727 729 732 736 738 741 743 746 749 751 754 757 759 762 764 766 768 770 771 773 774 776 777 779 780 781 782 782 783 784 786 787 788 788 789 789 790 790 791 792 793 794
620 621 626 633 637 637 634 630 627 629 635 641 646 650 653 655 657 658 660 662 664 667 670 673 676 679 682 685 688 691 693 697 700 702 706 709 711 714 718 720 722 723 723 725 728 731 734 737 739 742 744 747 750 752 754 757 759 761 763 765 767 769 770 771 773 775 776 778 779 780 781 782 783 783 784 785 786 787 788 789 789 790 791 792 792
621 620 621 626 634 637 637 635 635 636 639 642 645 648 652 653 655 656 658 660 662 664 668 670 673 675 679 682 686 689 692 694 696 699 702 705 708 712 716 718 719 721 722 723 726 730 732 735 738 741 743 746 749 751 753 755 756 758 759 761 764 766 768 769 771 773 774 776 777 778 779 780 780 781 782 782 783 785 786 787 787 788 789 790 790
622 624 623 626 631 637 638 639 640 642 644 645 647 648 650 651 653 655 657 659 661 663 666 668 671 674 677 680 683 687 690 692 693 696 699 701 704 708 712 716 719 720 721 721 723 727 730 733 736 739 741 743 746 748 750 752 753 755 757 759 761 763 765 766 768 770 772 773 774 775 776 777 778 779 780 780 781 782 783 784 785 786 788 789 788
625 628 628 629 632 635 638 641 643 645 647 649 650 649 648 648 651 654 656 658 661 663 665 667 670 673 675 677 680 682 684 686 689 692 694 697 700 703 707 711 715 716 717 718 719 722 725 728 732 735 737 740 742 744 747 748 750 752 754 756 758 760 761 763 764 766 769 770 771 773 774 774 775 776 777 778 779 780 781 782 783 785 785 786 786
629 631 632 633 634 636 639 643 646 648 650 651 650 650 651 650 649 651 655 657 660 663 665 667 669 671 672 675 677 679 681 683 686 688 690 693 697 699 702 707 710 711 712 714 717 719 722 724 727 730 734 736 738 741 744 745 747 749 751 753 755 756 757 759 761 763 765 767 768 770 771 772 773 774 775 776 777 778 779 780 781 782 782 783 783
635 636 637 638 639 641 644 648 651 652 653 653 652 652 655 654 652 652 654 656 659 662 665 667 669 671 672 674 676 679 680 682 684 685 687 690 693 696 699 702 705 707 708 710 713 715 716 718 721 726 730 733 735 738 740 742 743 746 748 749 751 752 753 755 757 760 762 763 765 767 768 769 770 772 773 774 774 775 777 778 778 779 779 780 780
639 641 642 642 644 646 649 652 653 652 651 652 653 655 658 659 657 655 655 656 659 662 665 667 669 672 674 675 676 678 679 680 681 683 685 687 690 693 696 699 701 704 706 708 710 712 713 715 718 721 725 729 732 734 736 737 739 742 744 745 746 748 750 752 755 757 759 760 762 763 765 767 768 769 770 771 772 773 774 775 776 776 777 777 777
648 648 647 646 647 648 649 651 652 651 650 651 654 657 659 661 659 657 657 658 660 663 665 667 669 671 673 675 676 677 677 678 679 681 683 685 687 690 693 697 701 703 704 704 705 707 710 712 714 717 721 725 728 730 732 733 735 738 740 742 743 745 747 750 752 754 755 757 759 760 762 764 765 766 767 768 769 771 772 773 773 774 774 775 775
654 653 652 650 650 649 650 651 652 653 653 654 655 658 660 661 661 661 660 661 662 664 666 667 669 671 672 674 675 676 677 678 679 680 681 683 686 689 693 697 701 702 703 703 703 705 707 709 710 712 717 721 724 726 728 731 733 734 736 738 740 742 744 746 748 750 752 754 756 757 758 760 762 764 765 766 767 768 769 770 771 772 772 773 773
655 655 654 654 653 653 654 655 656 657 658 658 658 659 661 663 664 664 664 664 665 666 667 668 669 670 672 673 675 676 677 678 679 680 681 682 683 686 690 693 695 697 699 700 702 704 706 707 709 711 714 718 721 723 726 729 730 731 733 735 736 738 741 742 744 747 748 750 753 754 755 757 759 761 763 764 765 766 767 768 769 770 771 771 772
658 657 657 657 657 657 657 658 659 660 660 660 660 661 664 666 668 668 667 666 666 666 667 668 669 671 672 673 675 676 676 677 678 679 681 682 683 684 686 687 689 692 694 696 698 701 704 706 708 710 713 715 718 721 723 726 727 728 730 731 733 735 737 739 741 744 746 748 750 751 753 754 757 759 760 762 763 764 765 766 767 768 769 770 770
663 663 663 662 662 662 662 663 663 664 664 665 666 667 669 671 671 670 669 668 667 668 669 669 670 672 672 673 674 675 676 677 678 679 681 682 683 684 685 686 687 688 689 692 695 699 701 704 706 709 711 714 717 719 720 721 723 725 726 728 730 732 734 736 738 740 743 745 746 748 750 752 754 756 758 759 760 761 762 763 764 766 767 767 768
669 669 669 668 668 668 669 669 669 669 670 670 671 672 673 673 672 672 671 670 670 670 671 671 672 673 674 674 675 675 676 677 677 678 680 681 682 683 685 686 686 686 687 690 693 696 698 701 703 706 708 711 715 717 718 718 719 721 723 726 728 730 732 734 735 737 739 741 742 744 746 748 750 753 755 756 757 758 760 761 762 763 764 764 765
673 673 673 672 672 672 672 672 673 673 674 674 674 675 675 674 674 674 673 673 673 672 672 673 673 674 674 674 675 676 677 678 679 679 680 682 683 685 687 688 689 688 688 690 692 694 697 699 702 704 707 710 713 715 716 715 716 718 720 723 726 727 729 731 732 734 735 737 739 740 742 744 747 749 751 753 754 755 757 758 759 760 761 762 762
678 678 677 676 675 675 675 675 675 676 676 676 676 676 676 676 675 675 675 675 675 674 674 674 675 674 674 675 675 676 677 678 680 681 682 683 685 686 688 690 692 693 693 693 693 694 696 699 702 705 707 709 712 713 713 712 713 715 719 722 724 725 726 728 730 731 733 735 737 738 740 742 744 746 748 750 751 753 754 755 756 757 758 759 760
684 683 682 680 679 678 678 678 678 677 677 677 676 676 677 677 676 677 677 677 677 677 677 677 676 676 676 676 676 677 677 678 680 681 682 684 685 686 688 691 692 694 696 697 697 697 697 700 702 705 706 708 709 710 710 711 713 716 718 721 722 723 724 726 727 729 731 733 735 736 738 739 741 742 745 747 749 750 751 752 753 754 755 756 757
689 688 687 685 684 683 682 682 681 680 680 680 679 679 679 679 679 679 679 679 679 679 679 679 679 679 679 679 679 679 679 679 680 681 682 684 685 686 688 690 691 693 695 698 699 699 699 699 701 703 704 705 707 708 709 712 714 716 718 719 720 722 723 724 726 727 728 729 731 734 736 737 738 740 743 745 746 747 748 749 750 751 752 753 754
694 693 692 690 689 688 687 686 685 684 684 683 683 682 682 682 682 682 682 682 682 681 681 681 682 682 682 682 682 681 681 681 682 683 684 685 687 688 690 691 691 692 694 697 699 700 699 699 700 702 703 704 705 707 709 711 714 715 717 717 718 720 721 722 723 724 725 727 729 732 734 735 736 738 740 742 743 744 745 746 747 748 749 750 752
699 697 696 695 694 693 692 691 690 689 688 687 687 686 686 686 685 686 686 686 685 685 684 685 685 685 685 685 684 684 684 684 685 685 686 687 688 689 691 692 693 693 694 697 699 700 700 700 700 701 702 703 705 707 708 710 712 713 714 715 716 717 718 720 721 723 724 726 728 730 731 733 734 735 737 739 740 741 742 744 745 746 747 748 749
702 701 700 699 699 698 697 696 696 694 693 692 692 691 691 690 689 689 689 689 689 689 688 688 688 688 688 688 687 687 687 687 688 688 688 689 691 691 692 693 694 695 696 699 700 700 701 701 701 702 702 703 704 706 707 708 709 710 711 713 714 715 716 718 719 720 722 723 725 727 728 730 731 733 734 736 738 739 740 741 742 743 745 746 747
707 706 705 704 704 703 702 701 701 699 698 698 697 697 696 695 694 693 693 693 692 693 692 692 692 691 690 690 690 689 689 689 690 690 691 692 693 694 694 695 695 696 698 700 701 701 701 701 701 702 702 703 703 704 705 706 707 709 710 711 713 714 715 716 717 718 719 721 723 724 726 727 729 730 732 734 736 737 738 739 740 742 743 744 745
713 712 711 711 710 709 708 707 706 705 704 704 703 702 701 700 699 698 698 697 697 697 696 695 695 694 693 693 692 692 692 692 693 693 694 694 695 696 696 697 697 698 699 700 700 700 700 700 700 701 701 702 703 703 704 706 707 708 709 710 711 712 713 714 716 717 718 719 721 722 724 725 727 728 730 731 733 734 735 737 738 740 741 742 743
718 718 718 717 716 715 714 714 713 712 711 710 709 707 706 705 704 703 703 702 702 701 699 699 699 698 697 696 696 695 695 695 696 696 697 697 697 698 698 698 699 699 699 699 699 699 699 699 700 700 701 701 702 703 704 705 706 707 708 709 710 711 712 712 714 715 717 718 719 721 722 724 725 727 728 729 730 732 733 735 736 737 738 740 740
723 723 722 721 721 720 720 719 718 717 716 715 714 712 711 710 709 708 707 707 706 705 704 703 703 702 701 700 700 699 698 698 699 700 700 700 700 700 700 700 700 700 700 699 699 699 699 699 700 700 701 701 702 702 703 704 705 706 707 708 709 710 711 712 713 714 715 716 718 719 721 722 724 725 726 727 728 729 731 733 734 735 736 737 737
727 726 726 725 725 724 724 723 722 722 721 720 719 718 716 715 714 713 712 712 711 710 709 708 707 706 705 704 704 703 702 702 702 703 703 703 703 702 702 702 702 702 701 701 700 700 700 700 700 701 702 702 702 702 703 704 705 706 707 708 709 710 711 712 713 713 715 716 717 718 719 720 721 723 724 725 726 727 728 730 732 733 734 734 735